Location: La Brionne
(46.1728°N, 1.7849°E)
Time: 17:21:45
(UTC+00:00)

USA 215 - Pass Details

Date: 29 October 2021
Orbit: 1099 x 1109 km, 123.0° (Epoch: 20 November)

Event Time Altitude Azimuth Distance (km) Brightness Sun altitude
Exits shadow 20:48:34 31° 328° (NNW) 1,838 4.7 -42.2°
Drops below altitude 10° 20:52:44 10° 294° (WNW) 2,964 6.1 -42.8°
Sets 20:55:26 0° 285° (WNW) 3,923 6.9 -43.2°
